sat.trackr.live / text

‹ back to catalog

STARLINK-34516

NORAD 64605 · 2025-137M

PAYLOAD ACTIVE UNKNOWN

§ Identity

Operator
Country
US
Launch date
2025-06-25
Launch site
AFETR
Launch vehicle
Mass (kg)
RCS (m²)

Purposes: comms

External: N2YO · Heavens-Above · Gunter

§ Orbital elements

Epoch: 2026-05-24T23:30:16.087104Z

Period
94.01 min
Inclination
53.1599°
Eccentricity
0.0001321
Mean motion
15.31717549 rev/d
Perigee alt
469.8 km
Apogee alt
471.6 km
Semi-major
6,848.8 km
B*
6.3995e-4
RAAN
340.2828°
Arg perigee
61.5765°
Mean anomaly
298.5369°
Rev number
5,252

§ Raw data

STARLINK-345161 64605U 25137M   26144.97935286  .00019556  00000+0  63995-3 0  99952 64605  53.1599 340.2828 0001321  61.5765 298.5369 15.31717549 52528

JSON: /api/v1/satellites/64605 · /tle

For live sub-satellite position, see the globe view (requires WebGL).

§ Visibility from observer

Set your observer location to see the next 7 days of passes ≥ 10°. The values pass through the URL so the page stays shareable.

No JS? Fill the form by hand. The geolocation button needs JavaScript.